Regional Weather Roundup
Issued by NWS State College, PA

Home | Current Version | Previous Version | Text Only | Print | Product List | Glossary Off
Versions: 1 2 3 4 5 6 7 8 9 10 11 12 13 14 15 16 17 18 19 20 21 22 23 24 25 26 27 28 29 30 31 32 33 34 35 36 37 38 39 40 41 42 43 44 45 46 47 48 49 50

000
ASUS41 KCTP 200010
RWRCTP

REGIONAL WEATHER ROUNDUP
NATIONAL WEATHER SERVICE STATE COLLEGE PA
800 PM EDT SAT APR 19 2014

Note: "fair" indicates few or no clouds below 12,000 feet with no
significant weather and/or obstructions to visibility.

* = STATION THAT DOES NOT REPORT PRECIPITATION /E.G. RAIN...SNOW...ETC/
    THUNDER OR FOG.

PAZ002>004-007>009-013>016-020>023-029>032-200100-
WESTERN PENNSYLVANIA

CITY           SKY/WX    TMP DP  RH WIND       PRES   REMARKS
ERIE           CLEAR     45  25  45 NE13      30.35F
MEADVILLE      PTCLDY    50  31  48 N9        30.31R
FRANKLIN*      PTCLDY    55  19  24 N6        30.31R
NEW CASTLE     FAIR      56  28  34 N8        30.29S
BEAVER COUNTY  CLEAR     59  23  25 N3        30.27F
BUTLER*        CLOUDY    57  21  24 NE3       30.29F
PITTSBURGH INT CLOUDY    60  19  20 CALM      30.27S
PITTSBURGH     CLOUDY    60  18  19 N3        30.26F
INDIANA*       CLOUDY    57  21  24 CALM      30.28R
LATROBE        MOCLDY    61  21  21 CALM      30.28R
WASHINGTON CO* CLOUDY    55  21  26 NE6       30.29S
$$

PAZ004>006-010>012-017>019-024>028-033>037-041-042-045-046-049>053-200100-
CENTRAL PENNSYLVANIA

CITY           SKY/WX    TMP DP  RH WIND       PRES   REMARKS
BRADFORD       PTCLDY    49  22  34 E9        30.30F
DUBOIS         MOCLDY    56  23  27 NE7       30.28S
CLEARFIELD     MOCLDY    56  21  25 E9        30.29R
JOHNSTOWN      MOCLDY    54  15  21 CALM      30.27R
ALTOONA        MOCLDY    57  23  26 E3        30.28S
STATE COLLEGE  CLEAR     55  25  30 NE8       30.29R
WILLIAMSPORT   MOCLDY    54  18  24 NE7       30.32R
SELINSGROVE    MOCLDY    55  24  30 N9        30.31R
FT INDIANTOWN  NOT AVBL
CAPITAL CITY   MOCLDY    61  21  21 N7        30.28R
HARRISBURG     MOCLDY    61  23  23 N6        30.28R
YORK           MOCLDY    49  36  61 CALM      30.28R
$$

PAZ038>040-043-044-047-048-054-055-060>062-067>071-200100-
EASTERN PENNSYLVANIA

CITY           SKY/WX    TMP DP  RH WIND       PRES   REMARKS
SCRANTON       MOCLDY    52  23  32 N7        30.30S
MOUNT POCONO   MOCLDY    49  19  30 N6        30.29R
ALLENTOWN      MOCLDY    57  26  30 N6        30.28R
QUAKERTOWN*    MOCLDY    57  25  28 NW5       30.28R
READING        MOCLDY    60  22  23 N5        30.28R
LANCASTER      MOCLDY    56  25  30 N8        30.27R
COATESVILLE    MOCLDY    57  23  26 N5        30.27S
POTTSTOWN      MOCLDY    58  22  24 N7        30.28R
BLUE BELL      MOCLDY    59  27  29 CALM      30.26R
DOYLESTOWN     MOCLDY    58  23  26 CALM      30.26R
WILLOW GROVE   NOT AVBL
NORTH PHILA    MOCLDY    62  23  22 N6        30.27R
PHILADELPHIA   CLOUDY    63  20  19 N8        30.26S
$$



USA.gov is the U.S. government's official web portal to all federal, state and local government web resources and services.